Location: Newark
(45.8667°N, 9.7333°E)
Time: 21:08:58
(UTC+00:00)

Vanguard 3 - Pass Details

Date: 28 January 2020
Orbit: 508 x 3263 km, 33.3° (Epoch: 19 February)

Event Time Altitude Azimuth Distance (km) Brightness Sun altitude
Rises 14:19:25 0° 210° (SSW) 6,316 13.4 15.8°
Reaches altitude 10° 14:23:55 10° 201° (SSW) 5,613 13.1 15.3°
Maximum altitude 14:38:58 34° 146° (SE) 4,500 11.2 13.5°
Drops below altitude 10° 14:54:49 10° 92° (E) 5,949 11.2 11.5°
Sets 14:59:41 0° 84° (E) 6,731 11.3 10.8°
